• In Uzbekistan
  • List of Countries
  • For 7 days
  • Water Temperature
  • Satellite Maps
  • Weather Map
  • Weather Widgets
  • user-avatar
    Login

    Hourly Weather Skorodne

    Today, 15 July, Sunday

    Time Temperature Precipitation Wind Pressure Humidity
    00:00 +14°C° 0 mm 2 mps 712 mmHg 95%
    01:00 +14°C° 0 mm 2 mps 712 mmHg 96%
    02:00 +13°C° 0 mm 2 mps 712 mmHg 96%
    03:00 +13°C° 0 mm 2 mps 712 mmHg 96%
    04:00 +13°C° 0 mm 2 mps 712 mmHg 97%
    05:00 +13°C° 0 mm 2 mps 712 mmHg 97%
    06:00 +13°C° 0.1 mm 3 mps 712 mmHg 95%
    07:00 +14°C° 0.1 mm 3 mps 712 mmHg 93%
    08:00 +15°C° 0 mm 4 mps 712 mmHg 90%
    09:00 +17°C° 0.4 mm 4 mps 712 mmHg 89%
    10:00 +17°C° 0.4 mm 4 mps 712 mmHg 88%
    11:00 +18°C° 0.4 mm 4 mps 712 mmHg 87%
    12:00 +18°C° 0.5 mm 4 mps 712 mmHg 87%
    13:00 +18°C° 0.5 mm 4 mps 712 mmHg 87%
    14:00 +18°C° 0 mm 4 mps 712 mmHg 88%
    15:00 +18°C° 0.4 mm 4 mps 712 mmHg 88%
    16:00 +18°C° 0.4 mm 4 mps 712 mmHg 88%
    17:00 +18°C° 0.4 mm 4 mps 712 mmHg 89%
    18:00 +17°C° 0.3 mm 3 mps 712 mmHg 90%
    19:00 +17°C° 0.3 mm 3 mps 711 mmHg 92%
    20:00 +16°C° 0.3 mm 2 mps 711 mmHg 93%
    21:00 +16°C° 0.1 mm 2 mps 711 mmHg 94%
    22:00 +15°C° 0.1 mm 2 mps 711 mmHg 95%
    23:00 +14°C° 0.1 mm 2 mps 711 mmHg 96%

    Tomorrow, 16 July, Monday

    Time Temperature Precipitation Wind Pressure Humidity
    00:00 +14°C° 0 mm 2 mps 711 mmHg 97%
    01:00 +14°C° 0 mm 2 mps 711 mmHg 97%
    02:00 +14°C° 0 mm 2 mps 711 mmHg 97%
    03:00 +14°C° 0.1 mm 2 mps 711 mmHg 97%
    04:00 +14°C° 0.1 mm 2 mps 711 mmHg 97%
    05:00 +14°C° 0.1 mm 2 mps 711 mmHg 97%
    06:00 +15°C° 0.1 mm 2 mps 711 mmHg 95%
    07:00 +16°C° 0.1 mm 3 mps 711 mmHg 93%
    08:00 +17°C° 0.1 mm 3 mps 711 mmHg 91%
    09:00 +17°C° 0.2 mm 3 mps 711 mmHg 89%
    10:00 +18°C° 0.2 mm 4 mps 711 mmHg 87%
    11:00 +19°C° 0.2 mm 4 mps 711 mmHg 85%
    12:00 +19°C° 0.6 mm 4 mps 711 mmHg 85%
    13:00 +19°C° 0.6 mm 4 mps 711 mmHg 85%
    14:00 +20°C° 0.6 mm 4 mps 710 mmHg 85%
    15:00 +20°C° 0.5 mm 4 mps 710 mmHg 82%
    16:00 +21°C° 0.5 mm 4 mps 710 mmHg 79%
    17:00 +21°C° 0.5 mm 4 mps 710 mmHg 76%
    18:00 +20°C° 0.2 mm 3 mps 709 mmHg 80%
    19:00 +19°C° 0.2 mm 3 mps 709 mmHg 85%
    20:00 +18°C° 0.2 mm 2 mps 709 mmHg 90%
    21:00 +17°C° 0.5 mm 2 mps 709 mmHg 91%
    22:00 +16°C° 0.5 mm 2 mps 709 mmHg 93%
    23:00 +15°C° 0.5 mm 2 mps 709 mmHg 95%

    Day after tomorrow, 17 July, Tuesday

    Time Temperature Precipitation Wind Pressure Humidity
    00:00 +15°C° 0.1 mm 2 mps 709 mmHg 95%
    01:00 +14°C° 0.1 mm 2 mps 708 mmHg 96%
    02:00 +14°C° 0.1 mm 2 mps 708 mmHg 96%
    03:00 +14°C° 0 mm 2 mps 708 mmHg 96%
    04:00 +14°C° 0 mm 2 mps 708 mmHg 96%
    05:00 +14°C° 0 mm 2 mps 708 mmHg 96%
    06:00 +15°C° 0 mm 2 mps 708 mmHg 93%
    07:00 +16°C° 0 mm 2 mps 708 mmHg 89%
    08:00 +18°C° 0 mm 3 mps 708 mmHg 85%
    09:00 +18°C° 0.1 mm 3 mps 708 mmHg 83%
    10:00 +19°C° 0.1 mm 3 mps 708 mmHg 81%
    11:00 +19°C° 0.1 mm 4 mps 708 mmHg 78%
    12:00 +20°C° 0.4 mm 4 mps 708 mmHg 79%
    13:00 +20°C° 0.4 mm 4 mps 707 mmHg 79%
    14:00 +20°C° 0.4 mm 4 mps 707 mmHg 80%
    15:00 +20°C° 0.4 mm 4 mps 707 mmHg 82%
    16:00 +19°C° 0.4 mm 4 mps 707 mmHg 85%
    17:00 +19°C° 0.4 mm 4 mps 707 mmHg 88%
    18:00 +18°C° 0.2 mm 3 mps 707 mmHg 90%
    19:00 +17°C° 0.2 mm 3 mps 707 mmHg 91%
    20:00 +17°C° 0.2 mm 3 mps 707 mmHg 93%
    21:00 +16°C° 0.1 mm 3 mps 706 mmHg 94%
    22:00 +16°C° 0.1 mm 2 mps 706 mmHg 95%
    23:00 +16°C° 0.1 mm 2 mps 706 mmHg 96%

    18 July, Wednesday

    Time Temperature Precipitation Wind Pressure Humidity
    00:00 +16°C° 0.2 mm 2 mps 706 mmHg 96%
    01:00 +16°C° 0.2 mm 2 mps 706 mmHg 96%
    02:00 +16°C° 0.2 mm 2 mps 706 mmHg 96%
    03:00 +16°C° 0.4 mm 3 mps 705 mmHg 97%
    04:00 +16°C° 0.4 mm 3 mps 705 mmHg 97%
    05:00 +16°C° 0.4 mm 3 mps 705 mmHg 97%
    06:00 +16°C° 1.2 mm 3 mps 705 mmHg 97%
    07:00 +16°C° 1.2 mm 3 mps 705 mmHg 97%
    08:00 +16°C° 1.2 mm 3 mps 705 mmHg 97%
    09:00 +16°C° 0.6 mm 2 mps 705 mmHg 97%
    10:00 +16°C° 0.6 mm 2 mps 705 mmHg 97%
    11:00 +18°C° 0.6 mm 1 mps 706 mmHg 96%
    12:00 +18°C° 0.3 mm 1 mps 706 mmHg 95%
    13:00 +19°C° 0.3 mm 1 mps 706 mmHg 94%
    14:00 +20°C° 0.3 mm 1 mps 706 mmHg 93%
    15:00 +20°C° 0.5 mm 1 mps 706 mmHg 93%
    16:00 +20°C° 0.5 mm 1 mps 707 mmHg 93%
    17:00 +21°C° 0.5 mm 1 mps 707 mmHg 93%
    18:00 +19°C° 0.4 mm 2 mps 707 mmHg 94%
    19:00 +19°C° 0.4 mm 2 mps 707 mmHg 95%
    20:00 +19°C° 0.4 mm 2 mps 707 mmHg 96%
    21:00 +19°C° 0.4 mm 2 mps 708 mmHg 97%
    22:00 +18°C° 0.4 mm 2 mps 708 mmHg 97%
    23:00 +18°C° 0.4 mm 3 mps 708 mmHg 98%

    19 July, Thursday

    Time Temperature Precipitation Wind Pressure Humidity
    00:00 +18°C° 0.2 mm 3 mps 708 mmHg 98%
    01:00 +18°C° 0.2 mm 3 mps 708 mmHg 98%
    02:00 +18°C° 0.2 mm 3 mps 708 mmHg 98%
    03:00 +18°C° 0.1 mm 3 mps 709 mmHg 98%
    04:00 +18°C° 0.1 mm 3 mps 709 mmHg 98%
    05:00 +18°C° 0.1 mm 3 mps 709 mmHg 98%
    06:00 +19°C° 0.1 mm 3 mps 709 mmHg 97%
    07:00 +19°C° 0.1 mm 3 mps 709 mmHg 97%
    08:00 +19°C° 0.1 mm 3 mps 710 mmHg 96%
    09:00 +19°C° 0.2 mm 3 mps 710 mmHg 95%
    10:00 +20°C° 0.2 mm 3 mps 710 mmHg 94%
    11:00 +20°C° 0.2 mm 3 mps 710 mmHg 93%
    12:00 +20°C° 0.2 mm 4 mps 710 mmHg 92%
    13:00 +20°C° 0.2 mm 4 mps 710 mmHg 90%
    14:00 +20°C° 0.2 mm 4 mps 711 mmHg 89%
    15:00 +21°C° 0.1 mm 4 mps 711 mmHg 88%
    16:00 +21°C° 0.1 mm 4 mps 711 mmHg 87%
    17:00 +21°C° 0.1 mm 4 mps 711 mmHg 86%
    18:00 +20°C° 0.1 mm 4 mps 711 mmHg 88%
    19:00 +19°C° 0.1 mm 3 mps 711 mmHg 91%
    20:00 +19°C° 0.1 mm 3 mps 711 mmHg 93%
    21:00 +18°C° 0 mm 3 mps 712 mmHg 94%
    22:00 +18°C° 0 mm 3 mps 712 mmHg 95%
    23:00 +18°C° 0 mm 3 mps 712 mmHg 95%

    20 July, Friday

    Time Temperature Precipitation Wind Pressure Humidity
    00:00 +17°C° 0 mm 2 mps 712 mmHg 96%
    01:00 +17°C° 0 mm 2 mps 712 mmHg 96%
    02:00 +17°C° 0 mm 2 mps 712 mmHg 97%
    03:00 +17°C° 0 mm 2 mps 712 mmHg 97%
    04:00 +16°C° 0 mm 2 mps 712 mmHg 97%
    05:00 +16°C° 0 mm 2 mps 712 mmHg 97%
    06:00 +17°C° 0 mm 2 mps 712 mmHg 95%
    07:00 +18°C° 0 mm 2 mps 712 mmHg 93%
    08:00 +18°C° 0 mm 2 mps 712 mmHg 91%
    09:00 +19°C° 0 mm 2 mps 712 mmHg 87%
    10:00 +20°C° 0 mm 2 mps 713 mmHg 83%
    11:00 +21°C° 0 mm 2 mps 713 mmHg 80%
    12:00 +23°C° 0.1 mm 2 mps 713 mmHg 74%
    13:00 +25°C° 0.1 mm 2 mps 713 mmHg 69%
    14:00 +26°C° 0.1 mm 2 mps 713 mmHg 64%
    15:00 +25°C° 0.5 mm 2 mps 713 mmHg 69%
    16:00 +25°C° 0.5 mm 2 mps 713 mmHg 74%
    17:00 +25°C° 0.5 mm 2 mps 712 mmHg 78%
    18:00 +23°C° 0.4 mm 2 mps 712 mmHg 83%
    19:00 +21°C° 0.4 mm 2 mps 712 mmHg 87%
    20:00 +21°C° 0.4 mm 1 mps 712 mmHg 92%
    21:00 +20°C° 0.1 mm 1 mps 712 mmHg 93%
    22:00 +19°C° 0.1 mm 1 mps 712 mmHg 94%
    23:00 +19°C° 0.1 mm 1 mps 713 mmHg 96%
    Show more